Regional Weather Roundup
Issued by NWS

Home | Current Version | Previous Version | Text Only | Print | Product List | Glossary Off
Versions: 1 2 3 4 5 6 7 8 9 10 11 12 13 14 15 16 17 18 19 20 21 22 23 24 25 26 27 28 29 30 31 32 33 34 35 36 37 38 39 40 41 42 43 44 45 46 47 48 49 50

000
ASUS43 KBIS 110810
RWRND

NORTH DAKOTA REGIONAL WEATHER ROUNDUP
NATIONAL WEATHER SERVICE BISMARCK ND
200 AM CST MON DEC 11 2017

NOTE: "FAIR" INDICATES FEW OR NO CLOUDS BELOW 12,000 FEET WITH NO
SIGNIFICANT WEATHER AND/OR OBSTRUCTIONS TO VISIBILITY.


NDZ001>003-009>011-017-110900-
NORTHWEST NORTH DAKOTA

CITY           SKY/WX    TMP DP  RH WIND       PRES   REMARKS
WILLISTON      CLOUDY    41  30  65 NW28G39   30.03R
MINOT          CLOUDY    41  32  70 NW32G43   29.85R
MINOT AFB      CLOUDY    40  32  73 NW35G40   29.83R
$$

NDZ018>021-031>035-040>046-110900-
SOUTHWEST NORTH DAKOTA

CITY           SKY/WX    TMP DP  RH WIND       PRES   REMARKS
BISMARCK       CLOUDY    45  32  60 NW25G41   29.90R
DICKINSON      CLOUDY    39  27  62 NW33G43   29.99R
GARRISON         N/A     39  32  76 NW32G45   29.88R
HETTINGER ARPT CLEAR     38  22  52 NW28G37   30.05R
$$

NDZ004>008-012>016-024-026-027-054-110900-
NORTHEAST NORTH DAKOTA

CITY           SKY/WX    TMP DP  RH WIND       PRES   REMARKS
GRAND FORKS    MOCLDY    29  28  96 S5        29.67F
GRND FRKS AFB  PTCLDY    38  30  72 NW14      29.66F
DEVILS LAKE    LGT RAIN  34  32  92 NW24      29.71S
$$

NDZ022-023-025-028>030-036>039-047>053-110900-
SOUTHEAST NORTH DAKOTA

CITY           SKY/WX    TMP DP  RH WIND       PRES   REMARKS
FARGO          LGT RAIN  34  30  85 S10       29.72F
JAMESTOWN      MOCLDY    40  29  64 NW31G43   29.74S
$$





USA.gov is the U.S. government's official web portal to all federal, state and local government web resources and services.